EZY36Y EDDH-EGSS

Flight info

Callsign EZY36Y
Flight time 1h 12m
Altitude 36000
Route WSN5G/33 WSN N125 EKNON DCT NOGRO M40 RINIS
Aircraft A320/M-SDE3FGHIRWY/LB1

Departure

Time 2026-05-04 20:49
Airport Hamburg Helmut Schmidt Airport (EDDH)

Arrival

Time 2026-05-04 22:01
Airport London Stansted Airport (EGSS)
Time Latitude Longitude Altitude Speed Heading
2026-05-04 20:27 53.62987 10.00357 46 ft 0 kts 117°
2026-05-04 20:42 53.62991 10.00342 46 ft 2 kts 117°
2026-05-04 20:42 53.62999 10.00316 41 ft 2 kts 117°
2026-05-04 20:42 53.63007 10.00290 43 ft 2 kts 117°
2026-05-04 20:42 53.63015 10.00265 43 ft 2 kts 130°
2026-05-04 20:43 53.63027 10.00243 42 ft 2 kts 172°
2026-05-04 20:43 53.63043 10.00248 43 ft 2 kts 202°
2026-05-04 20:43 53.63047 10.00251 42 ft 0 kts 202°
2026-05-04 20:45 53.63039 10.00245 43 ft 0 kts 202°
2026-05-04 20:45 53.63036 10.00243 42 ft 0 kts 202°
2026-05-04 20:46 53.63034 10.00242 42 ft 0 kts 202°
2026-05-04 20:46 53.63029 10.00236 42 ft 5 kts 211°
2026-05-04 20:46 53.62983 10.00174 45 ft 10 kts 214°
2026-05-04 20:46 53.62950 10.00136 46 ft 2 kts 214°
2026-05-04 20:47 53.62934 10.00118 46 ft 3 kts 214°
2026-05-04 20:47 53.62873 10.00044 45 ft 15 kts 221°
2026-05-04 20:47 53.62801 9.99955 46 ft 11 kts 213°
2026-05-04 20:47 53.62751 9.99897 46 ft 7 kts 248°
2026-05-04 20:48 53.62771 9.99829 47 ft 7 kts 325°
2026-05-04 20:48 53.62780 9.99821 46 ft 4 kts 332°
2026-05-04 20:48 53.62907 9.99712 47 ft 56 kts 333°
2026-05-04 20:48 53.63455 9.99238 45 ft 117 kts 333°
2026-05-04 20:49 53.64331 9.98474 49 ft 164 kts 332°
2026-05-04 20:49 53.65330 9.97648 583 ft 165 kts 333°
2026-05-04 20:49 53.66360 9.96758 1290 ft 166 kts 333°
2026-05-04 20:49 53.67413 9.95794 1746 ft 182 kts 332°
2026-05-04 20:50 53.68612 9.94758 2043 ft 204 kts 332°
2026-05-04 20:50 53.69908 9.93659 2576 ft 212 kts 331°
2026-05-04 20:50 53.71094 9.92226 3186 ft 214 kts 303°
2026-05-04 20:50 53.71543 9.89837 3674 ft 226 kts 265°
2026-05-04 20:51 53.71188 9.87114 4069 ft 248 kts 252°
2026-05-04 20:51 53.70628 9.84298 4753 ft 258 kts 249°
2026-05-04 20:51 53.70018 9.81454 5206 ft 259 kts 249°
2026-05-04 20:51 53.69404 9.78591 6130 ft 260 kts 250°
2026-05-04 20:52 53.68795 9.75700 6982 ft 262 kts 250°
2026-05-04 20:52 53.68195 9.72770 7818 ft 265 kts 251°
2026-05-04 20:52 53.67600 9.69812 8652 ft 267 kts 251°
2026-05-04 20:52 53.67008 9.66829 9499 ft 270 kts 251°
2026-05-04 20:53 53.66411 9.63801 10283 ft 273 kts 251°
2026-05-04 20:53 53.65810 9.60745 11025 ft 276 kts 251°
2026-05-04 20:53 53.65097 9.57712 11447 ft 292 kts 242°
2026-05-04 20:53 53.63924 9.54750 11626 ft 315 kts 234°
2026-05-04 20:54 53.62601 9.51698 12059 ft 328 kts 234°
2026-05-04 20:54 53.61242 9.48555 12692 ft 333 kts 234°
2026-05-04 20:54 53.59868 9.45372 13331 ft 339 kts 234°
2026-05-04 20:54 53.58474 9.42137 13990 ft 343 kts 234°
2026-05-04 20:55 53.57067 9.38869 14600 ft 346 kts 234°
2026-05-04 20:55 53.55642 9.35561 15223 ft 349 kts 234°
2026-05-04 20:55 53.54210 9.32234 15857 ft 352 kts 235°
2026-05-04 20:55 53.52769 9.28892 16471 ft 355 kts 235°
2026-05-04 20:56 53.51328 9.25553 17078 ft 358 kts 235°
2026-05-04 20:56 53.49842 9.22118 17690 ft 361 kts 235°
2026-05-04 20:56 53.48378 9.18743 18277 ft 364 kts 235°
2026-05-04 20:56 53.46880 9.15299 18811 ft 366 kts 235°
2026-05-04 20:57 53.45372 9.11838 19363 ft 368 kts 234°
2026-05-04 20:57 53.43847 9.08347 19917 ft 370 kts 234°
2026-05-04 20:57 53.42324 9.04861 20473 ft 372 kts 234°
2026-05-04 20:57 53.40789 9.01345 21030 ft 374 kts 234°
2026-05-04 20:58 53.39243 8.97805 21532 ft 377 kts 234°
2026-05-04 20:58 53.37687 8.94250 22039 ft 380 kts 233°
2026-05-04 20:58 53.36118 8.90669 22560 ft 382 kts 233°
2026-05-04 20:58 53.34699 8.86899 23067 ft 385 kts 242°
2026-05-04 20:59 53.33672 8.82753 23551 ft 388 kts 248°
2026-05-04 20:59 53.32743 8.78505 23966 ft 389 kts 248°
2026-05-04 20:59 53.31802 8.74241 24402 ft 390 kts 248°
2026-05-04 20:59 53.30851 8.69958 24784 ft 392 kts 248°
2026-05-04 21:00 53.29908 8.65718 25172 ft 393 kts 248°
2026-05-04 21:00 53.28956 8.61413 25581 ft 394 kts 248°
2026-05-04 21:00 53.28014 8.57113 25983 ft 395 kts 248°
2026-05-04 21:00 53.27068 8.52783 26379 ft 396 kts 248°
2026-05-04 21:01 53.26127 8.48451 26768 ft 397 kts 249°
2026-05-04 21:01 53.25243 8.44059 27148 ft 398 kts 250°
2026-05-04 21:01 53.24411 8.39638 27519 ft 399 kts 251°
2026-05-04 21:01 53.23602 8.35198 27884 ft 400 kts 251°
2026-05-04 21:02 53.22807 8.30806 28233 ft 401 kts 251°
2026-05-04 21:02 53.21981 8.26296 28581 ft 401 kts 251°
2026-05-04 21:02 53.21162 8.21890 28906 ft 402 kts 251°
2026-05-04 21:02 53.20318 8.17422 29221 ft 404 kts 250°
2026-05-04 21:03 53.19465 8.12958 29492 ft 406 kts 250°
2026-05-04 21:03 53.18599 8.08452 29761 ft 407 kts 250°
2026-05-04 21:03 53.17740 8.03942 30031 ft 409 kts 250°
2026-05-04 21:03 53.16883 7.99407 30271 ft 410 kts 250°
2026-05-04 21:04 53.16027 7.94866 30490 ft 411 kts 250°
2026-05-04 21:04 53.15169 7.90314 30704 ft 412 kts 250°
2026-05-04 21:04 53.14310 7.85770 30995 ft 411 kts 250°
2026-05-04 21:04 53.13447 7.81234 31290 ft 409 kts 250°
2026-05-04 21:05 53.12582 7.76715 31582 ft 408 kts 250°
2026-05-04 21:05 53.11726 7.72262 31865 ft 407 kts 250°
2026-05-04 21:05 53.10859 7.67763 32159 ft 407 kts 250°
2026-05-04 21:05 53.09996 7.63280 32444 ft 406 kts 250°
2026-05-04 21:06 53.09132 7.58796 32665 ft 407 kts 250°
2026-05-04 21:06 53.08261 7.54294 32922 ft 407 kts 250°
2026-05-04 21:06 53.07392 7.49816 33203 ft 407 kts 250°
2026-05-04 21:06 53.06521 7.45337 33495 ft 406 kts 250°
2026-05-04 21:07 53.05651 7.40863 33791 ft 405 kts 250°
2026-05-04 21:07 53.04794 7.36477 34065 ft 404 kts 250°
2026-05-04 21:07 53.03925 7.32039 34287 ft 404 kts 250°
2026-05-04 21:07 53.03053 7.27598 34477 ft 404 kts 250°
2026-05-04 21:08 53.02173 7.23135 34668 ft 405 kts 249°
2026-05-04 21:08 53.01288 7.18680 34841 ft 406 kts 249°
2026-05-04 21:08 53.00387 7.14219 35020 ft 407 kts 249°
2026-05-04 21:08 52.99475 7.09749 35204 ft 408 kts 250°
2026-05-04 21:09 52.98573 7.05333 35326 ft 409 kts 250°
2026-05-04 21:09 52.97655 7.00845 35464 ft 411 kts 250°
2026-05-04 21:09 52.96731 6.96345 35620 ft 412 kts 250°
2026-05-04 21:09 52.95806 6.91847 35780 ft 412 kts 250°
2026-05-04 21:10 52.94876 6.87332 35953 ft 413 kts 250°
2026-05-04 21:10 52.93945 6.82815 36016 ft 413 kts 250°
2026-05-04 21:10 52.92086 6.73800 36022 ft 412 kts 250°
2026-05-04 21:11 52.90234 6.64854 36023 ft 412 kts 250°
2026-05-04 21:11 52.88361 6.55869 36023 ft 413 kts 250°
2026-05-04 21:12 52.86478 6.46847 36012 ft 414 kts 250°
2026-05-04 21:12 52.84584 6.37851 36013 ft 414 kts 250°
2026-05-04 21:13 52.82674 6.28828 36008 ft 414 kts 249°
2026-05-04 21:13 52.80756 6.19802 35999 ft 417 kts 249°
2026-05-04 21:14 52.78816 6.10732 35981 ft 419 kts 249°
2026-05-04 21:14 52.76856 6.01689 35994 ft 420 kts 248°
2026-05-04 21:15 52.74590 5.92764 35999 ft 422 kts 245°
2026-05-04 21:15 52.72145 5.83940 35997 ft 423 kts 244°
2026-05-04 21:16 52.69707 5.75079 35996 ft 424 kts 245°
2026-05-04 21:16 52.67314 5.66181 35999 ft 424 kts 245°
2026-05-04 21:17 52.64944 5.57342 36015 ft 424 kts 245°
2026-05-04 21:17 52.62540 5.48455 36018 ft 425 kts 245°
2026-05-04 21:18 52.60116 5.39552 36013 ft 426 kts 245°
2026-05-04 21:18 52.57682 5.30640 36012 ft 427 kts 245°
2026-05-04 21:19 52.55240 5.21717 36011 ft 428 kts 245°
2026-05-04 21:19 52.52784 5.12792 36018 ft 428 kts 245°
2026-05-04 21:20 52.50344 5.03936 36017 ft 428 kts 245°
2026-05-04 21:20 52.47871 4.95025 36030 ft 428 kts 245°
2026-05-04 21:21 52.45801 4.87605 36026 ft 429 kts 245°
2026-05-04 21:21 52.43310 4.78711 36037 ft 429 kts 245°
2026-05-04 21:22 52.40815 4.69787 36026 ft 430 kts 244°
2026-05-04 21:22 52.38317 4.60871 35995 ft 430 kts 244°
2026-05-04 21:23 52.35819 4.52018 36005 ft 431 kts 244°
2026-05-04 21:23 52.33292 4.43122 36001 ft 431 kts 244°
2026-05-04 21:24 52.30756 4.34229 36019 ft 431 kts 244°
2026-05-04 21:24 52.28208 4.25335 36012 ft 431 kts 244°
2026-05-04 21:25 52.25668 4.16453 36012 ft 431 kts 244°
2026-05-04 21:25 52.23134 4.07634 36023 ft 431 kts 244°
2026-05-04 21:26 52.20582 3.98777 36016 ft 431 kts 244°
2026-05-04 21:26 52.18009 3.89918 36027 ft 431 kts 244°
2026-05-04 21:27 52.15446 3.81122 36030 ft 431 kts 244°
2026-05-04 21:27 52.12869 3.72295 36027 ft 431 kts 244°
2026-05-04 21:28 52.10278 3.63449 36029 ft 431 kts 244°
2026-05-04 21:28 52.07683 3.54634 36026 ft 431 kts 244°
2026-05-04 21:29 52.05103 3.45906 36025 ft 431 kts 244°
2026-05-04 21:29 52.02478 3.37052 35109 ft 437 kts 244°
2026-05-04 21:30 52.01149 3.32582 34164 ft 440 kts 243°
2026-05-04 21:30 51.99823 3.28129 33193 ft 439 kts 243°
2026-05-04 21:30 51.98501 3.23696 32684 ft 430 kts 243°
2026-05-04 21:30 51.97286 3.19368 32150 ft 425 kts 248°
2026-05-04 21:31 51.96106 3.10071 31016 ft 419 kts 262°
2026-05-04 21:31 51.95806 3.05329 30434 ft 416 kts 261°
2026-05-04 21:31 51.95504 3.00676 29843 ft 413 kts 261°
2026-05-04 21:32 51.95203 2.96105 29275 ft 409 kts 261°
2026-05-04 21:32 51.94898 2.91530 28749 ft 404 kts 262°
2026-05-04 21:32 51.94596 2.87017 28192 ft 400 kts 262°
2026-05-04 21:32 51.94295 2.82547 27672 ft 396 kts 262°
2026-05-04 21:33 51.93999 2.78128 27156 ft 392 kts 262°
2026-05-04 21:33 51.93704 2.73744 26655 ft 388 kts 262°
2026-05-04 21:33 51.93409 2.69415 26157 ft 385 kts 262°
2026-05-04 21:33 51.93119 2.65177 25672 ft 381 kts 263°
2026-05-04 21:34 51.92825 2.60922 25216 ft 378 kts 263°
2026-05-04 21:34 51.92535 2.56699 24752 ft 375 kts 263°
2026-05-04 21:34 51.92246 2.52511 24304 ft 372 kts 263°
2026-05-04 21:34 51.91959 2.48353 23847 ft 369 kts 263°
2026-05-04 21:35 51.91671 2.44227 23350 ft 367 kts 263°
2026-05-04 21:35 51.91382 2.40126 22883 ft 364 kts 263°
2026-05-04 21:35 51.91097 2.36077 22435 ft 360 kts 263°
2026-05-04 21:35 51.90817 2.32060 22076 ft 358 kts 264°
2026-05-04 21:36 51.90628 2.28025 22014 ft 361 kts 266°
2026-05-04 21:36 51.90517 2.23963 21281 ft 371 kts 268°
2026-05-04 21:36 51.90449 2.19777 20858 ft 368 kts 268°
2026-05-04 21:36 51.90395 2.15656 20505 ft 361 kts 268°
2026-05-04 21:37 51.90334 2.11619 20143 ft 356 kts 267°
2026-05-04 21:37 51.90261 2.07627 19776 ft 352 kts 267°
2026-05-04 21:37 51.90172 2.03682 19419 ft 350 kts 267°
2026-05-04 21:37 51.90071 1.99750 19061 ft 348 kts 266°
2026-05-04 21:38 51.89963 1.95835 18705 ft 348 kts 266°
2026-05-04 21:38 51.89900 1.91929 18351 ft 346 kts 272°
2026-05-04 21:38 51.90264 1.88092 17966 ft 345 kts 283°
2026-05-04 21:38 51.91132 1.84464 17642 ft 345 kts 295°
2026-05-04 21:39 51.92270 1.81045 17317 ft 343 kts 296°
2026-05-04 21:39 51.93383 1.77692 16995 ft 342 kts 296°
2026-05-04 21:39 51.94502 1.74295 16672 ft 340 kts 296°
2026-05-04 21:39 51.95613 1.70911 16349 ft 339 kts 296°
2026-05-04 21:40 51.96716 1.67546 16022 ft 337 kts 296°
2026-05-04 21:40 51.97820 1.64175 15709 ft 336 kts 296°
2026-05-04 21:40 51.98920 1.60814 15391 ft 337 kts 297°
2026-05-04 21:40 52.00018 1.57464 15077 ft 335 kts 297°
2026-05-04 21:41 52.01110 1.54124 14769 ft 333 kts 297°
2026-05-04 21:41 52.02193 1.50812 14446 ft 331 kts 297°
2026-05-04 21:41 52.03273 1.47507 14129 ft 330 kts 297°
2026-05-04 21:41 52.04350 1.44210 13817 ft 329 kts 297°
2026-05-04 21:42 52.05405 1.40975 13488 ft 326 kts 297°
2026-05-04 21:42 52.06464 1.37723 13167 ft 324 kts 297°
2026-05-04 21:42 52.07514 1.34491 12867 ft 322 kts 297°
2026-05-04 21:42 52.08557 1.31267 12563 ft 321 kts 297°
2026-05-04 21:43 52.09591 1.28065 12282 ft 317 kts 297°
2026-05-04 21:43 52.10598 1.24941 12151 ft 305 kts 295°
2026-05-04 21:43 52.11277 1.21742 11974 ft 295 kts 280°
2026-05-04 21:43 52.11402 1.18461 11824 ft 291 kts 265°
2026-05-04 21:44 52.11038 1.15225 11593 ft 289 kts 256°
2026-05-04 21:44 52.10571 1.12044 11345 ft 288 kts 257°
2026-05-04 21:44 52.10111 1.08875 11088 ft 287 kts 257°
2026-05-04 21:44 52.09657 1.05715 10834 ft 285 kts 257°
2026-05-04 21:45 52.09211 1.02618 10588 ft 284 kts 257°
2026-05-04 21:45 52.08758 0.99491 10336 ft 283 kts 257°
2026-05-04 21:45 52.08306 0.96375 10083 ft 283 kts 257°
2026-05-04 21:45 52.07853 0.93267 9829 ft 282 kts 257°
2026-05-04 21:46 52.07401 0.90169 9568 ft 281 kts 257°
2026-05-04 21:46 52.06953 0.87080 9324 ft 279 kts 257°
2026-05-04 21:46 52.06504 0.84008 9069 ft 279 kts 257°
2026-05-04 21:46 52.06054 0.80944 8826 ft 278 kts 257°
2026-05-04 21:47 52.05603 0.77888 8573 ft 277 kts 257°
2026-05-04 21:47 52.05154 0.74842 8323 ft 276 kts 257°
2026-05-04 21:47 52.04712 0.71847 8085 ft 275 kts 257°
2026-05-04 21:47 52.04267 0.68827 7843 ft 274 kts 257°
2026-05-04 21:48 52.03824 0.65833 7604 ft 271 kts 258°
2026-05-04 21:48 52.03381 0.62855 7367 ft 271 kts 257°
2026-05-04 21:48 52.02939 0.59887 7125 ft 270 kts 258°
2026-05-04 21:48 52.02494 0.56921 6879 ft 270 kts 258°
2026-05-04 21:49 52.02053 0.53965 6646 ft 269 kts 258°
2026-05-04 21:49 52.01609 0.51009 6407 ft 268 kts 258°
2026-05-04 21:49 52.01169 0.48068 6166 ft 267 kts 257°
2026-05-04 21:49 52.00856 0.45128 6045 ft 263 kts 270°
2026-05-04 21:50 52.00830 0.42153 6054 ft 264 kts 268°
2026-05-04 21:50 52.00718 0.39186 6056 ft 264 kts 266°
2026-05-04 21:50 52.00566 0.36205 6056 ft 264 kts 266°
2026-05-04 21:50 52.00408 0.33228 6058 ft 265 kts 266°
2026-05-04 21:51 52.00216 0.30250 6061 ft 265 kts 259°
2026-05-04 21:51 51.99608 0.27425 6057 ft 266 kts 243°
2026-05-04 21:51 51.98519 0.24986 6059 ft 268 kts 227°
2026-05-04 21:51 51.97162 0.22926 6053 ft 262 kts 225°
2026-05-04 21:52 51.95887 0.20995 5977 ft 247 kts 225°
2026-05-04 21:52 51.94649 0.19103 5789 ft 237 kts 225°
2026-05-04 21:52 51.93472 0.17298 5479 ft 235 kts 225°
2026-05-04 21:52 51.92298 0.15496 5078 ft 231 kts 225°
2026-05-04 21:53 51.91125 0.13698 4554 ft 231 kts 225°
2026-05-04 21:53 51.89956 0.11909 4108 ft 231 kts 225°
2026-05-04 21:53 51.88796 0.10140 3834 ft 223 kts 225°
2026-05-04 21:53 51.87695 0.08464 3567 ft 214 kts 225°
2026-05-04 21:54 51.86981 0.07376 3311 ft 212 kts 224°
2026-05-04 21:54 51.85920 0.05762 2990 ft 206 kts 225°
2026-05-04 21:54 51.84909 0.04241 2926 ft 190 kts 225°
2026-05-04 21:54 51.83948 0.02806 2874 ft 185 kts 224°
2026-05-04 21:55 51.83009 0.01402 2828 ft 184 kts 225°
2026-05-04 21:55 51.82072 0.00002 2787 ft 184 kts 224°
2026-05-04 21:55 51.81131 -0.01401 2743 ft 183 kts 223°
2026-05-04 21:55 51.80052 -0.02449 2662 ft 182 kts 194°
2026-05-04 21:56 51.78843 -0.02534 2589 ft 172 kts 165°
2026-05-04 21:56 51.77784 -0.01744 2519 ft 166 kts 137°
2026-05-04 21:56 51.76970 -0.00450 2513 ft 164 kts 128°
2026-05-04 21:56 51.76375 0.01099 2507 ft 162 kts 108°
2026-05-04 21:57 51.76166 0.02865 2511 ft 163 kts 88°
2026-05-04 21:57 51.76375 0.04699 2519 ft 169 kts 67°
2026-05-04 21:57 51.77001 0.06289 2524 ft 168 kts 46°
2026-05-04 21:57 51.77845 0.07560 2516 ft 168 kts 42°
2026-05-04 21:58 51.78687 0.08813 2494 ft 153 kts 43°
2026-05-04 21:58 51.79435 0.09928 2480 ft 142 kts 42°
2026-05-04 21:58 51.80150 0.10994 2373 ft 138 kts 43°
2026-05-04 21:58 51.80849 0.12036 2215 ft 135 kts 44°
2026-05-04 21:59 51.81540 0.13067 2049 ft 135 kts 42°
2026-05-04 21:59 51.82227 0.14093 1874 ft 134 kts 42°
2026-05-04 21:59 51.82913 0.15117 1685 ft 134 kts 43°
2026-05-04 21:59 51.83597 0.16139 1505 ft 134 kts 43°
2026-05-04 22:00 51.84281 0.17161 1316 ft 133 kts 43°
2026-05-04 22:00 51.84963 0.18181 1122 ft 133 kts 42°
2026-05-04 22:00 51.85644 0.19200 940 ft 134 kts 42°
2026-05-04 22:00 51.86330 0.20227 750 ft 134 kts 43°
2026-05-04 22:01 51.87017 0.21254 529 ft 134 kts 42°
2026-05-04 22:01 51.87694 0.22273 403 ft 132 kts 43°
2026-05-04 22:01 51.88332 0.23223 333 ft 114 kts 42°
2026-05-04 22:01 51.88691 0.23764 334 ft 26 kts 42°
2026-05-04 22:02 51.88731 0.23824 335 ft 14 kts 43°
2026-05-04 22:02 51.88816 0.23974 337 ft 20 kts 57°
2026-05-04 22:02 51.88872 0.24189 341 ft 20 kts 70°
2026-05-04 22:02 51.88904 0.24352 353 ft 13 kts 71°
2026-05-04 22:03 51.88921 0.24447 347 ft 6 kts 84°
2026-05-04 22:03 51.88913 0.24502 348 ft 4 kts 115°
2026-05-04 22:03 51.88897 0.24536 352 ft 5 kts 128°
2026-05-04 22:03 51.88831 0.24646 353 ft 14 kts 130°
2026-05-04 22:04 51.88852 0.24788 347 ft 15 kts 46°
2026-05-04 22:04 51.88932 0.24912 343 ft 16 kts 44°
2026-05-04 22:04 51.88954 0.25049 336 ft 15 kts 122°
2026-05-04 22:04 51.88938 0.25119 338 ft 3 kts 64°
2026-05-04 22:05 51.88956 0.25151 337 ft 3 kts 44°
2026-05-04 22:05 51.88966 0.25166 337 ft 1 kts 44°